{"data":{"norad_id":58497,"intl_designator":"2023-187B","name":"MISRSAT-2","alt_names":[],"object_type":"PAYLOAD","status":"ACTIVE","operator":null,"country":"EGYP","launch_date":"2023-12-04","launch_site_code":"JSC","launch_vehicle":null,"mission":null,"orbit_class":"UNKNOWN","rcs_meters":null,"size_class":null,"mass_kg":null,"dimensions":null,"purposes":[],"wikipedia_slug":null,"has_3d_model":false,"image_url":null,"decayed_at":null,"tle_current":{"epoch":"2026-05-25T04:31:33.914208Z","epoch_age_seconds":52725,"freshness":"FRESH","line1":"1 58497U 23187B   26145.18858697  .00001071  00000+0  13777-3 0  9990","line2":"2 58497  97.9268 227.2986 0010191 215.0668 144.9875 14.83177068133631","mean_motion":14.83177068,"eccentricity":0.0010191,"inclination_deg":97.9268,"raan_deg":227.2986,"arg_perigee_deg":215.0668,"mean_anomaly_deg":144.9875,"bstar":0.00013777,"rev_number":13363,"period_min":97.088879747971,"perigee_km":612.1824788136,"apogee_km":626.44468258718,"semimajor_km":6997.4505807004,"source":"CELESTRAK","updated_at":"2026-05-25T13:38:00.793325Z"}}}